Regional Weather Roundup
Issued by NWS

Home | Current Version | Previous Version | Graphics & Text | Print | Product List | Glossary On
Versions: 1 2 3 4 5 6 7 8 9 10 11 12 13 14 15 16 17 18 19 20 21 22 23 24 25 26 27 28 29 30 31 32 33 34 35 36 37 38 39 40 41 42 43 44 45 46 47 48 49 50
000
ASUS43 KMKX 231400
RWRWI

WISCONSIN REGIONAL WEATHER ROUNDUP
NATIONAL WEATHER SERVICE MILWAUKEE/SULLIVAN WI
900 AM CDT TUE SEP 23 2014

NOTE: "FAIR" INDICATES FEW OR NO CLOUDS BELOW 12,000 FEET WITH NO
SIGNIFICANT WEATHER AND/OR OBSTRUCTIONS TO VISIBILITY.

WIZ001-002-006>008-014>016-023>028-231500-
NORTHWEST WISCONSIN

CITY           SKY/WX    TMP DP  RH WIND       PRES   REMARKS
SUPERIOR ARPT  SUNNY     53  51  95 CALM      30.21R
ASHLAND        SUNNY     59  52  77 S6        30.23R
HAYWARD        SUNNY     54  50  86 CALM      30.24S
SIREN          SUNNY     54  50  88 SE5       30.22S
CUMBERLAND     SUNNY     50  48  93 CALM      30.25R
RICE LAKE      SUNNY     51  50  96 CALM      30.26S
CHETEK         SUNNY     51  50  98 E3        30.25R
LADYSMITH      SUNNY     51  50  97 SE3       30.27S
EAU CLAIRE     SUNNY     54  51  90 CALM      30.26R
MENOMONIE      SUNNY     51  51 100 E3        30.26R
NEW RICHMOND   SUNNY     54  50  87 S5        30.24R
OSCEOLA        SUNNY     55  52  90 SE5       30.25S
$$

WIZ003>005-009-010-017-018-231500-
NORTH CENTRAL WISCONSIN

CITY           SKY/WX    TMP DP  RH WIND       PRES   REMARKS
MANITOWISH WTR SUNNY     51  51 100 CALM      30.26R
ARBOR VITAE    SUNNY     53  50  92 CALM      30.26S
WOODRUFF       SUNNY     53  50  92 CALM      30.26S
RHINELANDER    SUNNY     56  51  84 SW3       30.28R
EAGLE RIVER    SUNNY     50  50 100 SW3       30.26R
LAND O LAKES   SUNNY     51  51 100 CALM      30.27R
PHILLIPS       SUNNY     54  51  88 CALM      30.26S
TOMAHAWK       SUNNY     50  49  97 CALM      30.28S
MEDFORD        SUNNY     51  50  97 CALM      30.27S
MERRILL        SUNNY     46  46 100 CALM      30.28R
$$

WIZ029-030-035-036-043>047-231500-
CENTRAL WISCONSIN

CITY           SKY/WX    TMP DP  RH WIND       PRES   REMARKS
WAUSAU         SUNNY     53  49  86 CALM      30.27R
MOSINEE        SUNNY     52  52 100 CALM      30.29R
MARSHFIELD     SUNNY     54  52  93 SW3       30.27S
STEVENS POINT  SUNNY     49  49  97 CALM      30.29R
WAUPACA        SUNNY     54  52  95 CALM      30.29R
WAUTOMA        NOT AVBL
WISC RAPIDS    SUNNY     54  52  93 S5        30.30R
CAMP DOUGLAS   NOT AVBL
$$

WIZ011>013-019>022-031-037>040-048>050-231500-
NORTHEAST WISCONSIN

CITY           SKY/WX    TMP DP  RH WIND       PRES   REMARKS
ANTIGO         SUNNY     50  50  97 CALM      30.28S
SHAWANO        SUNNY     56  52  87 CALM      30.28S
OCONTO         SUNNY     55  53  92 W5        30.26S
STURGEON BAY   SUNNY     59  52  77 W8        30.27S
GREEN BAY      SUNNY     57  53  86 VRB3      30.29R
MANITOWOC      NOT AVBL
APPLETON       SUNNY     57  54  88 CALM      30.29S
CLINTONVILLE   SUNNY     54  52  94 CALM      30.28S
OSHKOSH        SUNNY     58  52  80 W5        30.29R
$$

WIZ032>034-041-042-053>061-231500-
SOUTHWEST WISCONSIN

CITY           SKY/WX    TMP DP  RH WIND       PRES   REMARKS
LA CROSSE      PTSUNNY   52  51  97 E6        30.29R FOG
SPARTA         SUNNY     46  46  99 CALM      30.30R
VIROQUA        SUNNY     56  49  77 CALM      30.30R
BOSCOBEL       FOG       49  48  97 CALM      30.32R VSB<1/4
PRAIRIE DU CHI SUNNY     49  48  95 CALM      30.30S
PLATTEVILLE    SUNNY     55  50  83 CALM      30.33R
$$

WIZ056-057-062-063-064-067-068-231500-
SOUTH CENTRAL WISCONSIN

CITY           SKY/WX    TMP DP  RH WIND       PRES   REMARKS
REEDSBURG      SUNNY     50  47  91 CALM      30.30R
BARABOO/DELLS  SUNNY     57  49  74 SW5       30.30R
LONE ROCK      MOSUNNY   52  47  83 CALM      30.32R
MINERAL POINT  SUNNY     55  50  82 S3        30.31R
MADISON        SUNNY     59  52  77 S3        30.31R
MIDDLETON      SUNNY     56  52  87 CALM      30.31R
WATERTOWN      SUNNY     53  50  89 CALM      30.30S
MONROE         SUNNY     55  50  82 SW6       30.32R
JANESVILLE     SUNNY     55  48  76 CALM      30.32R
$$

WIZ051-052-058>065-066-070>072-231500-
SOUTHEAST WISCONSIN

CITY           SKY/WX    TMP DP  RH WIND       PRES   REMARKS
MILWAUKEE      SUNNY     60  46  59 W7        30.32R
WAUKESHA       SUNNY     55  48  76 SW3       30.33R
MILWAUKEE/TIMM SUNNY     57  48  72 CALM      30.31S
RACINE         SUNNY     59  48  67 W7        30.33R
BURLINGTON     SUNNY     52  49  89 CALM      30.32R
KENOSHA        SUNNY     58  50  75 W8        30.33R
FOND DU LAC    SUNNY     56  50  80 SW3       30.30R
SHEBOYGAN      SUNNY     59  52  77 W3        30.29S
WEST BEND      SUNNY     54  48  82 CALM      30.30R
JUNEAU         SUNNY     52  49  89 CALM      30.31S
$$

LSZ147-162-231500-
LAKE SUPERIOR

STATION/POSITION TIME  TEMP    WIND        PRES    WAVE
                       AIR SEA DIR/SP/G            HT/PER
                 (UTC) (F)     (DEG/KT/KT) (MB)    (FT/S)
W MID LAKE BUOY  1250   50 48  220/  8/ 10 1022.3R   1/ 3
DEVILS ISLAND    1300   57     220/ 10/ 12 1022.7R
PORT WING        1300   54     160/  4/  5 1023.0R
SAXON HARBOR     1300   55     190/  6/  9 1023.0S
$$

LMZ867-665-643>646-231500-
LAKE MICHIGAN

STATION/POSITION TIME  TEMP    WIND        PRES    WAVE
                       AIR SEA DIR/SP/G            HT/PER
                 (UTC) (F)     (DEG/KT/KT) (MB)    (FT/S)
CHAMBERS ISLAND  1300   58     190/  5/ 11 1024.0R
S GREEN BAY BUOY 1330   57                 1025.7R
N MID LAKE BUOY  1250   57 57  250/ 10/ 12 1023.5R   2/ 5
NORTHPORT PIER   1300   61     280/  6/ 11 1023.7R
SISTER BAY       1257          280/  9/ 10   N/A
ALGOMA LAKESHORE 1224          310/  5/  8   N/A
KEWAUNEE LAKESHO 1300   54     290/  7/  8 1023.6R
SHEBOYGAN LAKESH 1300   55 54  260/ 11/ 11 1025.8R
PORT WASHINGTON  1340   60     290/  7/ 10 1026.1R
ATWATER BUOY     1330   58     250/ 10/ 14 1026.8R
S MID LAKE BUOY  1250   60 62  240/ 10/ 12 1026.4R   2/ 4
KENOSHA   LAKESH 1300   56     250/  8/ 11 1026.1R
$$

TC  - TEMPERATURE IN CELSIUS
VSB - VISIBILITY IN STATUTE MILES
WCI - WIND CHILL INDEX
HX  - HEAT INDEX




USA.gov is the U.S. government's official web portal to all federal, state and local government web resources and services.